Total_Precipitation_Accumulation
0.45 0.45 0.41 0.40 0.38 0.35 0.35 0.35 0.32 0.29 0.27 0.26 0.23 0.21 0.19 0.19 0.19 0.21 0.24 0.26 0.27 0.26 0.25 0.25 0.27 0.27 0.28 0.28 0.29 0.31 0.34 0.39 0.45 0.36 0.26 0.23 0.23 0.25 0.26 0.28 0.25 0.22 0.19
0.37 0.34 0.31 0.27 0.26 0.25 0.23 0.22 0.20 0.19 0.18 0.18 0.18 0.17 0.15 0.15 0.16 0.17 0.18 0.19 0.21 0.22 0.21 0.21 0.21 0.22 0.24 0.24 0.24 0.24 0.26 0.31 0.39 0.38 0.27 0.21 0.20 0.22 0.24 0.26 0.17 0.15 0.17
0.34 0.33 0.32 0.27 0.23 0.22 0.20 0.18 0.17 0.17 0.16 0.14 0.13 0.12 0.11 0.11 0.11 0.12 0.12 0.13 0.14 0.14 0.14 0.14 0.14 0.16 0.18 0.17 0.18 0.19 0.21 0.24 0.30 0.34 0.26 0.21 0.17 0.15 0.22 0.25 0.23 0.28 0.16
0.32 0.32 0.35 0.33 0.27 0.23 0.21 0.19 0.15 0.13 0.11 0.10 0.08 0.08 0.08 0.07 0.06 0.06 0.06 0.06 0.07 0.07 0.07 0.07 0.08 0.10 0.14 0.17 0.16 0.18 0.21 0.25 0.26 0.29 0.25 0.20 0.18 0.18 0.30 0.38 0.36 0.31 0.22
0.30 0.31 0.32 0.32 0.28 0.23 0.20 0.17 0.14 0.10 0.09 0.08 0.07 0.06 0.05 0.04 0.03 0.02 0.02 0.02 0.03 0.04 0.04 0.05 0.06 0.08 0.14 0.16 0.17 0.20 0.25 0.30 0.31 0.35 0.32 0.28 0.25 0.32 0.41 0.43 0.39 0.30 0.23
0.34 0.33 0.30 0.26 0.24 0.21 0.18 0.16 0.13 0.12 0.10 0.09 0.08 0.05 0.04 0.03 0.03 0.02 0.02 0.03 0.04 0.06 0.07 0.07 0.06 0.06 0.08 0.09 0.11 0.15 0.23 0.31 0.37 0.43 0.41 0.38 0.35 0.42 0.50 0.51 0.53 0.49 0.41
0.40 0.36 0.33 0.29 0.23 0.18 0.14 0.14 0.14 0.15 0.13 0.11 0.08 0.06 0.06 0.03 0.01 0.01 0.01 0.03 0.06 0.10 0.12 0.12 0.09 0.08 0.12 0.15 0.12 0.11 0.15 0.21 0.35 0.50 0.54 0.47 0.46 0.53 0.62 0.64 0.61 0.59 0.52
0.41 0.36 0.30 0.28 0.24 0.19 0.15 0.14 0.13 0.15 0.15 0.13 0.10 0.09 0.09 0.04 0.01 0.00 0.00 0.04 0.08 0.10 0.11 0.13 0.17 0.20 0.16 0.11 0.09 0.14 0.24 0.35 0.40 0.44 0.52 0.49 0.47 0.52 0.62 0.65 0.61 0.56 0.52
0.37 0.29 0.24 0.22 0.20 0.17 0.16 0.14 0.13 0.14 0.15 0.13 0.11 0.11 0.13 0.09 0.01 0.00 0.01 0.05 0.08 0.09 0.08 0.09 0.12 0.17 0.13 0.11 0.14 0.24 0.32 0.40 0.34 0.43 0.49 0.55 0.60 0.60 0.56 0.56 0.68 0.73 0.70
0.24 0.18 0.17 0.17 0.15 0.14 0.13 0.12 0.13 0.13 0.13 0.11 0.11 0.11 0.13 0.12 0.03 0.00 0.01 0.05 0.09 0.09 0.12 0.16 0.13 0.10 0.11 0.12 0.16 0.28 0.39 0.43 0.53 0.71 0.85 0.90 0.85 0.77 0.64 0.64 0.78 0.85 0.85
0.15 0.14 0.15 0.15 0.15 0.14 0.14 0.15 0.14 0.14 0.17 0.16 0.15 0.14 0.14 0.08 0.03 0.01 0.02 0.05 0.08 0.10 0.16 0.25 0.25 0.14 0.14 0.12 0.15 0.28 0.41 0.48 0.72 1.03 1.09 0.97 0.84 0.74 0.66 0.63 0.68 0.76 0.83
0.16 0.17 0.16 0.15 0.09 0.08 0.15 0.17 0.17 0.20 0.22 0.21 0.19 0.16 0.15 0.12 0.05 0.02 0.01 0.02 0.04 0.12 0.25 0.27 0.25 0.21 0.18 0.17 0.23 0.37 0.47 0.65 0.92 1.11 1.05 0.86 0.68 0.57 0.51 0.47 0.50 0.56 0.64
0.23 0.23 0.19 0.14 0.12 0.10 0.14 0.17 0.19 0.20 0.19 0.15 0.15 0.13 0.12 0.14 0.10 0.02 0.02 0.02 0.04 0.11 0.23 0.26 0.26 0.25 0.28 0.41 0.48 0.55 0.66 0.85 1.01 0.99 0.85 0.74 0.61 0.52 0.46 0.45 0.44 0.48 0.49
0.31 0.26 0.22 0.19 0.15 0.12 0.12 0.11 0.14 0.15 0.15 0.13 0.12 0.12 0.13 0.14 0.10 0.06 0.06 0.07 0.10 0.15 0.23 0.35 0.45 0.49 0.53 0.62 0.70 0.78 0.84 0.92 0.87 0.77 0.67 0.63 0.54 0.48 0.46 0.42 0.43 0.45 0.48
0.27 0.22 0.19 0.14 0.13 0.16 0.13 0.06 0.05 0.05 0.04 0.06 0.08 0.08 0.11 0.12 0.07 0.08 0.09 0.11 0.16 0.20 0.25 0.41 0.60 0.66 0.70 0.74 0.74 0.78 0.80 0.76 0.76 0.70 0.63 0.56 0.50 0.46 0.45 0.42 0.42 0.41 0.45
0.22 0.18 0.14 0.10 0.09 0.11 0.14 0.11 0.03 0.01 0.01 0.01 0.03 0.04 0.05 0.08 0.07 0.06 0.09 0.13 0.18 0.25 0.31 0.50 0.66 0.70 0.71 0.72 0.68 0.68 0.69 0.65 0.62 0.61 0.59 0.55 0.50 0.47 0.45 0.42 0.40 0.40 0.44
0.16 0.13 0.09 0.08 0.09 0.11 0.15 0.22 0.23 0.12 0.03 0.02 0.02 0.04 0.05 0.07 0.07 0.06 0.08 0.13 0.17 0.24 0.32 0.52 0.69 0.79 0.79 0.72 0.65 0.62 0.67 0.68 0.64 0.61 0.56 0.53 0.47 0.42 0.40 0.39 0.36 0.35 0.37
0.07 0.06 0.06 0.09 0.07 0.07 0.09 0.13 0.22 0.27 0.23 0.16 0.08 0.05 0.06 0.08 0.10 0.10 0.11 0.15 0.21 0.26 0.37 0.52 0.64 0.69 0.70 0.70 0.64 0.61 0.65 0.67 0.64 0.57 0.51 0.48 0.43 0.38 0.36 0.37 0.34 0.28 0.28
0.04 0.06 0.06 0.05 0.04 0.05 0.06 0.07 0.11 0.16 0.22 0.23 0.19 0.12 0.09 0.11 0.14 0.16 0.16 0.19 0.25 0.29 0.36 0.45 0.53 0.54 0.51 0.52 0.51 0.51 0.55 0.59 0.54 0.45 0.42 0.42 0.38 0.33 0.33 0.33 0.28 0.19 0.20
0.03 0.02 0.02 0.02 0.03 0.03 0.04 0.06 0.07 0.11 0.16 0.21 0.19 0.15 0.14 0.21 0.28 0.27 0.20 0.18 0.18 0.22 0.29 0.37 0.43 0.41 0.38 0.37 0.34 0.33 0.36 0.39 0.37 0.34 0.32 0.31 0.31 0.30 0.28 0.25 0.23 0.20 0.19
0.02 0.02 0.01 0.01 0.03 0.03 0.02 0.03 0.03 0.06 0.11 0.15 0.13 0.10 0.15 0.22 0.30 0.31 0.29 0.26 0.24 0.23 0.24 0.26 0.30 0.33 0.32 0.29 0.25 0.22 0.23 0.24 0.24 0.25 0.26 0.26 0.26 0.25 0.20 0.17 0.13 0.10 0.10
0.01 0.01 0.01 0.02 0.02 0.02 0.01 0.01 0.01 0.03 0.07 0.10 0.11 0.10 0.14 0.18 0.22 0.24 0.29 0.33 0.32 0.29 0.25 0.23 0.23 0.26 0.29 0.28 0.22 0.18 0.17 0.18 0.20 0.23 0.24 0.24 0.22 0.18 0.14 0.11 0.08 0.06 0.06
0.00 0.00 0.00 0.01 0.00 0.00 0.00 0.00 0.01 0.01 0.04 0.06 0.08 0.10 0.12 0.16 0.19 0.21 0.25 0.30 0.33 0.31 0.26 0.22 0.22 0.25 0.27 0.27 0.23 0.17 0.14 0.14 0.16 0.18 0.23 0.23 0.19 0.15 0.11 0.08 0.05 0.04 0.03
0.00 0.00 0.00 0.00 0.00 0.00 0.00 0.00 0.00 0.00 0.01 0.02 0.05 0.07 0.10 0.14 0.15 0.17 0.21 0.25 0.29 0.30 0.29 0.27 0.26 0.26 0.25 0.24 0.21 0.13 0.10 0.11 0.12 0.14 0.18 0.20 0.17 0.13 0.08 0.06 0.04 0.03 0.02
0.00 0.00 0.00 0.00 0.00 0.00 0.00 0.00 0.00 0.00 0.01 0.01 0.02 0.03 0.05 0.07 0.10 0.11 0.15 0.19 0.22 0.25 0.25 0.24 0.24 0.22 0.20 0.17 0.14 0.10 0.09 0.11 0.12 0.12 0.14 0.15 0.12 0.10 0.08 0.06 0.04 0.04 0.03
0.00 0.00 0.00 0.00 0.00 0.00 0.00 0.01 0.01 0.01 0.01 0.01 0.01 0.02 0.02 0.03 0.05 0.07 0.08 0.09 0.12 0.16 0.19 0.20 0.20 0.17 0.12 0.08 0.07 0.07 0.07 0.05 0.05 0.06 0.10 0.14 0.11 0.09 0.08 0.07 0.04 0.03 0.03